Time,TemperatureF,DewpointF,PressureIn,WindDirection,WindDirectionDegrees,WindSpeedMPH,WindSpeedGustMPH,Humidity,HourlyPrecipIn,Conditions,Clouds,dailyrainin,SoftwareType,DateUTC
2013-01-11 00:11:00,20.8,18.0,29.78,West,272,2.0,4.0,87,0.00,,,0.00,weatherlink.com 1.10,2013-01-11 07:11:00,
2013-01-11 00:26:00,20.9,18.0,29.79,NNW,336,1.0,6.0,89,0.00,,,0.00,weatherlink.com 1.10,2013-01-11 07:26:00,
2013-01-11 00:41:00,20.8,18.0,29.79,NW,314,0.0,4.0,90,0.00,,,0.00,weatherlink.com 1.10,2013-01-11 07:41:00,
2013-01-11 00:56:00,20.2,17.0,29.80,NE,40,0.0,4.0,86,0.00,,,0.00,weatherlink.com 1.10,2013-01-11 07:56:00,
2013-01-11 01:11:00,-999.0,-99.9,29.80,North,-999,-999.0,-999.0,-999,0.00,,,0.00,weatherlink.com 1.10,2013-01-11 08:11:00,
2013-01-11 01:26:00,-999.0,-99.9,29.80,North,-999,-999.0,-999.0,-999,0.00,,,0.00,weatherlink.com 1.10,2013-01-11 08:26:00,
2013-01-11 01:41:00,-999.0,-99.9,29.80,North,-999,-999.0,-999.0,-999,0.00,,,0.00,weatherlink.com 1.10,2013-01-11 08:41:00,
2013-01-11 01:56:00,-999.0,-99.9,29.80,North,-999,-999.0,-999.0,-999,0.00,,,0.00,weatherlink.com 1.10,2013-01-11 08:56:00,
2013-01-11 02:12:00,-999.0,-99.9,29.80,North,-999,-999.0,-999.0,-999,0.00,,,0.00,weatherlink.com 1.10,2013-01-11 09:12:00,
2013-01-11 02:27:00,-999.0,-99.9,29.80,North,-999,-999.0,-999.0,-999,0.00,,,0.00,weatherlink.com 1.10,2013-01-11 09:27:00,
2013-01-11 02:42:00,-999.0,-99.9,29.81,North,-999,-999.0,-999.0,-999,0.00,,,0.00,weatherlink.com 1.10,2013-01-11 09:42:00,
2013-01-11 02:57:00,-999.0,-99.9,29.82,North,-999,-999.0,-999.0,-999,0.00,,,0.00,weatherlink.com 1.10,2013-01-11 09:57:00,
2013-01-11 03:12:00,-999.0,-99.9,29.82,North,-999,-999.0,-999.0,-999,0.00,,,0.00,weatherlink.com 1.10,2013-01-11 10:12:00,
2013-01-11 03:27:00,-999.0,-99.9,29.82,North,-999,-999.0,-999.0,-999,0.00,,,0.00,weatherlink.com 1.10,2013-01-11 10:27:00,
2013-01-11 03:42:00,-999.0,-99.9,29.82,North,-999,-999.0,-999.0,-999,0.00,,,0.00,weatherlink.com 1.10,2013-01-11 10:42:00,
2013-01-11 03:57:00,-999.0,-99.9,29.82,North,-999,-999.0,-999.0,-999,0.00,,,0.00,weatherlink.com 1.10,2013-01-11 10:57:00,
2013-01-11 04:12:00,-999.0,-99.9,29.82,North,-999,-999.0,-999.0,-999,0.00,,,0.00,weatherlink.com 1.10,2013-01-11 11:12:00,
2013-01-11 04:27:00,17.7,12.0,29.82,NE,39,6.0,8.0,79,0.00,,,0.00,weatherlink.com 1.10,2013-01-11 11:27:00,
2013-01-11 04:42:00,17.8,12.0,29.83,NNE,33,4.0,7.0,79,0.00,,,0.00,weatherlink.com 1.10,2013-01-11 11:42:00,
2013-01-11 04:57:00,17.2,13.0,29.83,North,355,2.0,5.0,84,0.00,,,0.00,weatherlink.com 1.10,2013-01-11 11:57:00,
2013-01-11 05:12:00,17.3,12.0,29.84,NE,34,6.0,9.0,80,0.00,,,0.00,weatherlink.com 1.10,2013-01-11 12:12:00,
2013-01-11 05:27:00,17.1,13.0,29.85,North,9,6.0,8.0,83,0.00,,,0.00,weatherlink.com 1.10,2013-01-11 12:27:00,
2013-01-11 05:42:00,-999.0,-99.9,29.86,North,-999,-999.0,-999.0,-999,0.00,,,0.00,weatherlink.com 1.10,2013-01-11 12:42:00,
2013-01-11 05:57:00,-999.0,-99.9,29.86,North,-999,-999.0,-999.0,-999,0.00,,,0.00,weatherlink.com 1.10,2013-01-11 12:57:00,
2013-01-11 06:13:00,-999.0,-99.9,29.87,North,-999,-999.0,-999.0,-999,0.00,,,0.00,weatherlink.com 1.10,2013-01-11 13:13:00,
2013-01-11 06:28:00,-999.0,-99.9,29.87,North,-999,-999.0,-999.0,-999,0.00,,,0.00,weatherlink.com 1.10,2013-01-11 13:28:00,
2013-01-11 06:43:00,-999.0,-99.9,29.87,North,-999,-999.0,-999.0,-999,0.00,,,0.00,weatherlink.com 1.10,2013-01-11 13:43:00,
2013-01-11 06:58:00,-999.0,-99.9,29.88,North,-999,-999.0,-999.0,-999,0.00,,,0.00,weatherlink.com 1.10,2013-01-11 13:58:00,
2013-01-11 07:13:00,-999.0,-99.9,29.88,North,-999,-999.0,-999.0,-999,0.00,,,0.00,weatherlink.com 1.10,2013-01-11 14:13:00,
2013-01-11 07:28:00,-999.0,-99.9,29.89,North,-999,-999.0,-999.0,-999,0.00,,,0.00,weatherlink.com 1.10,2013-01-11 14:28:00,
2013-01-11 07:43:00,-999.0,-99.9,29.90,North,-999,-999.0,-999.0,-999,0.00,,,0.00,weatherlink.com 1.10,2013-01-11 14:43:00,
2013-01-11 07:58:00,-999.0,-99.9,29.91,North,-999,-999.0,-999.0,-999,0.00,,,0.00,weatherlink.com 1.10,2013-01-11 14:58:00,
2013-01-11 08:13:00,-999.0,-99.9,29.92,North,-999,-999.0,-999.0,-999,0.00,,,0.00,weatherlink.com 1.10,2013-01-11 15:13:00,
2013-01-11 08:28:00,-999.0,-99.9,29.93,North,-999,-999.0,-999.0,-999,0.00,,,0.00,weatherlink.com 1.10,2013-01-11 15:28:00,
2013-01-11 08:43:00,-999.0,-99.9,29.93,North,-999,-999.0,-999.0,-999,0.00,,,0.00,weatherlink.com 1.10,2013-01-11 15:43:00,
2013-01-11 08:58:00,-999.0,-99.9,29.94,North,-999,-999.0,-999.0,-999,0.00,,,0.00,weatherlink.com 1.10,2013-01-11 15:58:00,
2013-01-11 09:13:00,-999.0,-99.9,29.95,North,-999,-999.0,-999.0,-999,0.00,,,0.00,weatherlink.com 1.10,2013-01-11 16:13:00,
2013-01-11 09:29:00,-999.0,-99.9,29.96,North,-999,-999.0,-999.0,-999,0.00,,,0.00,weatherlink.com 1.10,2013-01-11 16:29:00,
2013-01-11 09:44:00,-999.0,-99.9,29.97,North,-999,-999.0,-999.0,-999,0.00,,,0.00,weatherlink.com 1.10,2013-01-11 16:44:00,
2013-01-11 09:59:00,-999.0,-99.9,29.97,North,-999,-999.0,-999.0,-999,0.00,,,0.00,weatherlink.com 1.10,2013-01-11 16:59:00,
2013-01-11 10:14:00,-999.0,-99.9,29.98,North,-999,-999.0,-999.0,-999,0.00,,,0.00,weatherlink.com 1.10,2013-01-11 17:14:00,
2013-01-11 10:29:00,-999.0,-99.9,29.99,North,-999,-999.0,-999.0,-999,0.00,,,0.00,weatherlink.com 1.10,2013-01-11 17:29:00,
2013-01-11 10:44:00,-999.0,-99.9,30.00,North,-999,-999.0,-999.0,-999,0.00,,,0.00,weatherlink.com 1.10,2013-01-11 17:44:00,
2013-01-11 10:59:00,-999.0,-99.9,30.00,North,-999,-999.0,-999.0,-999,0.00,,,0.00,weatherlink.com 1.10,2013-01-11 17:59:00,
2013-01-11 11:14:00,-999.0,-99.9,30.00,North,-999,-999.0,-999.0,-999,0.00,,,0.00,weatherlink.com 1.10,2013-01-11 18:14:00,
2013-01-11 11:29:00,-999.0,-99.9,30.01,North,-999,-999.0,-999.0,-999,0.00,,,0.00,weatherlink.com 1.10,2013-01-11 18:29:00,
2013-01-11 11:44:00,-999.0,-99.9,30.01,North,-999,-999.0,-999.0,-999,0.00,,,0.00,weatherlink.com 1.10,2013-01-11 18:44:00,
2013-01-11 11:59:00,-999.0,-99.9,30.01,North,-999,-999.0,-999.0,-999,0.00,,,0.00,weatherlink.com 1.10,2013-01-11 18:59:00,
2013-01-11 12:14:00,18.9,13.0,30.02,North,5,7.0,10.0,78,0.00,,,0.00,weatherlink.com 1.10,2013-01-11 19:14:00,
2013-01-11 12:29:00,19.2,13.0,30.02,North,360,10.0,11.0,77,0.00,,,0.00,weatherlink.com 1.10,2013-01-11 19:29:00,
2013-01-11 12:44:00,-999.0,-99.9,30.02,North,-999,-999.0,-999.0,-999,0.00,,,0.00,weatherlink.com 1.10,2013-01-11 19:44:00,
2013-01-11 12:59:00,-999.0,-99.9,30.02,North,-999,-999.0,-999.0,-999,0.00,,,0.00,weatherlink.com 1.10,2013-01-11 19:59:00,
2013-01-11 13:15:00,-999.0,-99.9,30.02,North,-999,-999.0,-999.0,-999,0.00,,,0.00,weatherlink.com 1.10,2013-01-11 20:15:00,
2013-01-11 13:30:00,-999.0,-99.9,30.03,North,-999,-999.0,-999.0,-999,0.00,,,0.00,weatherlink.com 1.10,2013-01-11 20:30:00,
2013-01-11 13:45:00,-999.0,-99.9,30.03,North,-999,-999.0,-999.0,-999,0.00,,,0.00,weatherlink.com 1.10,2013-01-11 20:45:00,
2013-01-11 14:00:00,-999.0,-99.9,30.04,North,-999,-999.0,-999.0,-999,0.00,,,0.00,weatherlink.com 1.10,2013-01-11 21:00:00,
2013-01-11 14:15:00,-999.0,-99.9,30.05,North,-999,-999.0,-999.0,-999,0.00,,,0.00,weatherlink.com 1.10,2013-01-11 21:15:00,
2013-01-11 14:30:00,-999.0,-99.9,30.05,North,-999,-999.0,-999.0,-999,0.00,,,0.00,weatherlink.com 1.10,2013-01-11 21:30:00,
2013-01-11 14:45:00,-999.0,-99.9,30.06,North,-999,-999.0,-999.0,-999,0.00,,,0.00,weatherlink.com 1.10,2013-01-11 21:45:00,
2013-01-11 15:00:00,20.0,12.0,30.08,NNE,12,8.0,12.0,70,0.00,,,0.00,weatherlink.com 1.10,2013-01-11 22:00:00,
2013-01-11 15:15:00,19.8,11.0,30.09,NNE,19,5.0,10.0,69,0.00,,,0.00,weatherlink.com 1.10,2013-01-11 22:15:00,
2013-01-11 15:30:00,19.7,11.0,30.10,NE,37,5.0,8.0,69,0.00,,,0.00,weatherlink.com 1.10,2013-01-11 22:30:00,
2013-01-11 15:45:00,19.7,12.0,30.11,NNE,14,3.0,7.0,71,0.00,,,0.00,weatherlink.com 1.10,2013-01-11 22:45:00,
2013-01-11 16:00:00,19.7,11.0,30.11,NNE,17,3.0,6.0,70,0.00,,,0.00,weatherlink.com 1.10,2013-01-11 23:00:00,
2013-01-11 16:15:00,19.7,12.0,30.13,NNW,347,1.0,5.0,72,0.00,,,0.00,weatherlink.com 1.10,2013-01-11 23:15:00,
2013-01-11 16:30:00,19.3,12.0,30.14,NE,36,2.0,3.0,73,0.00,,,0.00,weatherlink.com 1.10,2013-01-11 23:30:00,
2013-01-11 16:45:00,19.2,12.0,30.14,NE,36,3.0,3.0,74,0.00,,,0.00,weatherlink.com 1.10,2013-01-11 23:45:00,
2013-01-11 17:00:00,19.0,12.0,30.14,NNE,28,0.0,3.0,75,0.00,,,0.00,weatherlink.com 1.10,2013-01-12 00:00:00,
2013-01-11 17:15:00,19.4,11.0,30.15,NE,51,5.0,7.0,71,0.00,,,0.00,weatherlink.com 1.10,2013-01-12 00:15:00,
2013-01-11 17:30:00,19.4,11.0,30.16,NNE,12,4.0,7.0,70,0.00,,,0.00,weatherlink.com 1.10,2013-01-12 00:30:00,
2013-01-11 17:45:00,18.6,11.0,30.16,NNE,13,4.0,6.0,72,0.00,,,0.00,weatherlink.com 1.10,2013-01-12 00:45:00,
2013-01-11 18:00:00,18.4,11.0,30.16,NNE,15,6.0,7.0,72,0.00,,,0.00,weatherlink.com 1.10,2013-01-12 01:00:00,
2013-01-11 18:16:00,18.0,11.0,30.17,North,10,2.0,6.0,74,0.00,,,0.00,weatherlink.com 1.10,2013-01-12 01:16:00,
2013-01-11 18:31:00,18.6,11.0,30.18,NNE,26,4.0,7.0,72,0.00,,,0.00,weatherlink.com 1.10,2013-01-12 01:31:00,
2013-01-11 18:46:00,18.8,11.0,30.18,NNE,29,5.0,7.0,71,0.00,,,0.00,weatherlink.com 1.10,2013-01-12 01:46:00,
2013-01-11 19:01:00,18.4,10.0,30.18,NE,44,6.0,7.0,71,0.00,,,0.00,weatherlink.com 1.10,2013-01-12 02:01:00,
2013-01-11 19:16:00,-999.0,-99.9,30.19,North,-999,-999.0,-999.0,-999,0.00,,,0.00,weatherlink.com 1.10,2013-01-12 02:16:00,
2013-01-11 19:31:00,-999.0,-99.9,30.19,North,-999,-999.0,-999.0,-999,0.00,,,0.00,weatherlink.com 1.10,2013-01-12 02:31:00,
2013-01-11 19:46:00,-999.0,-99.9,30.19,North,-999,-999.0,-999.0,-999,0.00,,,0.00,weatherlink.com 1.10,2013-01-12 02:46:00,
2013-01-11 20:01:00,-999.0,-99.9,30.19,North,-999,-999.0,-999.0,-999,0.00,,,0.00,weatherlink.com 1.10,2013-01-12 03:01:00,
2013-01-11 20:16:00,-999.0,-99.9,30.19,North,-999,-999.0,-999.0,-999,0.00,,,0.00,weatherlink.com 1.10,2013-01-12 03:16:00,
2013-01-11 20:31:00,-999.0,-99.9,30.19,North,-999,-999.0,-999.0,-999,0.00,,,0.00,weatherlink.com 1.10,2013-01-12 03:31:00,
2013-01-11 20:46:00,-999.0,-99.9,30.19,North,-999,-999.0,-999.0,-999,0.00,,,0.00,weatherlink.com 1.10,2013-01-12 03:46:00,
2013-01-11 21:01:00,-999.0,-99.9,30.18,North,-999,-999.0,-999.0,-999,0.00,,,0.00,weatherlink.com 1.10,2013-01-12 04:01:00,
2013-01-11 21:16:00,-999.0,-99.9,30.19,North,-999,-999.0,-999.0,-999,0.00,,,0.00,weatherlink.com 1.10,2013-01-12 04:16:00,
2013-01-11 21:31:00,-999.0,-99.9,30.19,North,-999,-999.0,-999.0,-999,0.00,,,0.00,weatherlink.com 1.10,2013-01-12 04:31:00,
2013-01-11 21:46:00,-999.0,-99.9,30.19,North,-999,-999.0,-999.0,-999,0.00,,,0.00,weatherlink.com 1.10,2013-01-12 04:46:00,
2013-01-11 22:16:00,-999.0,-99.9,30.20,North,-999,-999.0,-999.0,-999,0.00,,,0.00,weatherlink.com 1.10,2013-01-12 05:16:00,
2013-01-11 22:32:00,-999.0,-99.9,30.20,North,-999,-999.0,-999.0,-999,0.00,,,0.00,weatherlink.com 1.10,2013-01-12 05:32:00,
2013-01-11 22:47:00,-999.0,-99.9,30.21,North,-999,-999.0,-999.0,-999,0.00,,,0.00,weatherlink.com 1.10,2013-01-12 05:47:00,
2013-01-11 23:02:00,-999.0,-99.9,30.21,North,-999,-999.0,-999.0,-999,0.00,,,0.00,weatherlink.com 1.10,2013-01-12 06:02:00,
2013-01-11 23:17:00,-999.0,-99.9,30.21,North,-999,-999.0,-999.0,-999,0.00,,,0.00,weatherlink.com 1.10,2013-01-12 06:17:00,
2013-01-11 23:32:00,-999.0,-99.9,30.21,North,-999,-999.0,-999.0,-999,0.00,,,0.00,weatherlink.com 1.10,2013-01-12 06:32:00,
2013-01-11 23:47:00,-999.0,-99.9,30.21,North,-999,-999.0,-999.0,-999,0.00,,,0.00,weatherlink.com 1.10,2013-01-12 06:47:00,